Location: Newark
(30.1000°N, 109.4667°E)
Time: 01:57:46
(UTC+00:00)

A-11 Canister half - Pass Details

Date: 19 February 2020
Orbit: 1516 x 1683 km, 47.2° (Epoch: 06 April)

Event Time Altitude Azimuth Distance (km) Brightness Sun altitude
Rises 15:15:41 0° 310° (NW) 4,771 12.0 -60.1°
Reaches altitude 10° 15:18:53 10° 314° (NW) 3,763 11.3 -60.7°
Enters shadow 15:20:00 14° 316° (NW) 3,421 11.1 -60.9°
